Find Starlink 2491

NORAD ID: 48148 Int'l Des: 2021-027 Owner: SPXS Country: US Constellation: starlink operational
LEOCIRCULAR

Live Position

Loading 3D Globe...

About Starlink 2491

Description loading...

Upcoming Passes

Passes for default location (London). Set your location on the main map for personalized predictions.

Altitude History

Loading altitude history...

Two-Line Element Set

1 48148U 21027BJ 26107.05337168 -.00000745 00000-0 -13015-4 0 9998
2 48148 53.1620 347.2373 0001273 88.5754 271.5393 15.30204177278370
Epoch: Apr 17, 2026 • Age: 12 hours

Current Status

Altitude 475.1 km
Velocity 7.63 km/s
Sub-Earth Point 12.44°N, 115.31°E
Launch Date Apr 7, 2021
Age 5 years
Type internet

Technical Details

Classification Payload
Mass 260.00 kg
Dry Mass 248.00 kg
Total Mass 260.00 kg
Length 0.20 m
Diameter 2.80 m
Span 9.00 m
Shape Box + pan
Manufacturer SPXS
Bus Type Starlink
Phase Status In Orbit
Owner/State SPXS/US

Most Searched